| time (UTC) | temp C | wind direction | speed KPH | gust KPH | rain 1hr cm | rain 24hr cm | rain mn cm | humidity % | barometer mb |
| 20260502190005 | 7 | 280 | 8.0 | 17.7 | 0.00 | 0.13 | 0.00 | 64 | 1015.4 |
| 20260502184502 | 7 | 279 | 8.0 | 20.9 | 0.00 | 0.15 | 0.00 | 62 | 1015.4 |
| 20260502183001 | 7 | 278 | 6.4 | 16.1 | 0.00 | 0.15 | 0.00 | 65 | 1015.4 |
| 20260502181501 | 7 | 292 | 6.4 | 32.2 | 0.00 | 0.15 | 0.00 | 60 | 1015.3 |
| 20260502163000 | 7 | 276 | 8.0 | 17.7 | 0.00 | 0.15 | 0.00 | 56 | 1015.2 |
| 20260502123000 | 3 | 221 | 4.8 | 12.9 | 0.00 | 0.15 | 0.00 | 83 | 1016.2 |
| 20260502114459 | 2 | 216 | 6.4 | 16.1 | 0.00 | 0.15 | 0.00 | 87 | 1016.3 |
| 20260502113000 | 2 | 239 | 6.4 | 17.7 | 0.00 | 0.15 | 0.00 | 88 | 1016.3 |
| 20260502110005 | 1 | 219 | 1.6 | 6.4 | 0.00 | 0.15 | 0.00 | 91 | 1016.0 |
| 20260502102959 | 1 | 163 | 0.0 | 1.6 | 0.00 | 0.15 | 0.00 | 92 | 1015.8 |
| 20260502101459 | 0 | 88 | 0.0 | 1.6 | 0.00 | 0.15 | 0.00 | 92 | 1015.6 |
| 20260502091459 | 1 | 238 | 0.0 | 1.6 | 0.00 | 0.15 | 0.00 | 88 | 1015.4 |
| 20260502070004 | 3 | 284 | 4.8 | 12.9 | 0.00 | 0.15 | 0.00 | 82 | 1014.4 |
| 20260502062959 | 4 | 274 | 4.8 | 11.3 | 0.00 | 0.15 | 0.00 | 83 | 1014.3 |
| 20260502054459 | 5 | 214 | 3.2 | 6.4 | 0.00 | 0.15 | 0.00 | 87 | 1014.2 |
| 20260502052959 | 5 | 277 | 0.0 | 3.2 | 0.00 | 0.15 | 0.00 | 89 | 1014.2 |
| 20260502051459 | 5 | 277 | 0.0 | 1.6 | 0.00 | 0.15 | 0.00 | 89 | 1014.1 |
| 20260502044458 | 5 | 277 | 0.0 | 0.0 | 0.00 | 0.15 | 0.00 | 88 | 1014.2 |
| 20260502042958 | 5 | 277 | 0.0 | 0.0 | 0.00 | 0.15 | 0.00 | 89 | 1014.1 |
| 20260502041458 | 5 | 277 | 0.0 | 1.6 | 0.00 | 0.15 | 0.00 | 88 | 1014.3 |
| 20260502040007 | 5 | 277 | 0.0 | 1.6 | 0.00 | 0.15 | 0.00 | 89 | 1014.3 |
| 20260502034502 | 5 | 277 | 1.6 | 4.8 | 0.00 | 0.15 | 0.15 | 89 | 1014.2 |
| 20260502031502 | 5 | 277 | 4.8 | 14.5 | 0.00 | 0.15 | 0.15 | 94 | 1014.3 |
| 20260502030005 | 5 | 268 | 1.6 | 4.8 | 0.00 | 0.15 | 0.15 | 95 | 1014.3 |
| 20260502024502 | 5 | 200 | 0.0 | 1.6 | 0.00 | 0.15 | 0.15 | 95 | 1014.2 |
| 20260502021501 | 5 | 200 | 0.0 | 0.0 | 0.00 | 0.15 | 0.15 | 95 | 1014.2 |
| 20260502020005 | 5 | 200 | 0.0 | 0.0 | 0.00 | 0.15 | 0.15 | 94 | 1014.2 |
| 20260502014502 | 5 | 200 | 0.0 | 0.0 | 0.00 | 0.15 | 0.15 | 94 | 1014.2 |
| 20260502013002 | 5 | 200 | 0.0 | 0.0 | 0.00 | 0.15 | 0.15 | 93 | 1014.0 |
| 20260502011502 | 5 | 200 | 0.0 | 0.0 | 0.00 | 0.15 | 0.15 | 92 | 1014.0 |
| 20260502010005 | 5 | 200 | 0.0 | 0.0 | 0.00 | 0.15 | 0.15 | 92 | 1013.7 |
| 20260502004502 | 5 | 200 | 0.0 | 0.0 | 0.00 | 0.15 | 0.15 | 91 | 1013.5 |
| 20260502003003 | 6 | 200 | 0.0 | 0.0 | 0.00 | 0.15 | 0.15 | 91 | 1013.4 |
| 20260502001502 | 6 | 242 | 0.0 | 1.6 | 0.00 | 0.15 | 0.15 | 90 | 1013.2 |
| 20260502000005 | 6 | 165 | 0.0 | 1.6 | 0.00 | 0.15 | 0.15 | 90 | 1013.2 |
| 20260501234501 | 6 | 165 | 1.6 | 3.2 | 0.00 | 0.15 | 0.15 | 89 | 1012.9 |
| 20260501233001 | 6 | 165 | 1.6 | 6.4 | 0.00 | 0.15 | 0.15 | 89 | 1012.8 |
| 20260501231501 | 6 | 165 | 1.6 | 4.8 | 0.00 | 0.15 | 0.15 | 88 | 1012.9 |
| 20260501230008 | 6 | 185 | 3.2 | 6.4 | 0.00 | 0.15 | 0.15 | 89 | 1013.1 |
| 20260501224501 | 6 | 165 | 1.6 | 4.8 | 0.03 | 0.15 | 0.15 | 90 | 1012.9 |
| 20260501223001 | 6 | 140 | 1.6 | 4.8 | 0.03 | 0.15 | 0.15 | 89 | 1012.9 |
| 20260501220006 | 6 | 224 | 1.6 | 4.8 | 0.05 | 0.15 | 0.15 | 88 | 1013.3 |
| 20260501213001 | 6 | 27 | 1.6 | 3.2 | 0.05 | 0.13 | 0.13 | 89 | 1013.2 |
| 20260501211501 | 6 | 27 | 0.0 | 3.2 | 0.05 | 0.13 | 0.13 | 89 | 1013.1 |
| 20260501204501 | 6 | 314 | 3.2 | 4.8 | 0.03 | 0.10 | 0.10 | 89 | 1013.0 |
| 20260501203001 | 6 | 51 | 3.2 | 6.4 | 0.03 | 0.08 | 0.08 | 88 | 1013.0 |
| 20260501201501 | 6 | 58 | 3.2 | 6.4 | 0.03 | 0.08 | 0.08 | 89 | 1013.0 |
| 20260501200005 | 5 | 31 | 3.2 | 6.4 | 0.05 | 0.08 | 0.08 | 88 | 1013.1 |
| 20260501194501 | 5 | 355 | 4.8 | 8.0 | 0.05 | 0.08 | 0.08 | 87 | 1013.2 |
| 20260501193001 | 5 | 355 | 3.2 | 8.0 | 0.03 | 0.05 | 0.05 | 88 | 1013.3 |
| 20260501191501 | 5 | 333 | 3.2 | 6.4 | 0.05 | 0.05 | 0.05 | 87 | 1013.4 |